EW8215 Weather Reports


time (UTC)temp
F
wind
direction
speed
knots
gust
knots
rain 1hr
in
rain 24hr
in
rain mn
in
humidity
%
barometer
mb
20260507224646 66 156 0.0 0.0 0.00 0.00 0.00 74 1016.4
20260507224143 65 180 1.7 2.6 0.00 0.00 0.00 74 1016.5
20260507223639 66 33 4.3 4.3 0.00 0.00 0.00 72 1016.2
20260507223136 65 153 0.9 1.7 0.00 0.00 0.00 74 1015.9
20260507222633 65 134 1.7 1.7 0.00 0.00 0.00 73 1016.2
20260507222130 66 115 0.9 1.7 0.00 0.00 0.00 74 1016.3
20260507221626 66 145 0.9 1.7 0.00 0.00 0.00 73 1016.9
20260507221123 66 138 0.9 1.7 0.00 0.00 0.00 72 1016.9
20260507220620 66 83 2.6 2.6 0.00 0.00 0.00 71 1017.1
20260507220117 66 339 4.3 6.1 0.00 0.00 0.00 72 1017.0
20260507215613 66 52 1.7 2.6 0.00 0.00 0.00 72 1016.9
20260507215111 66 130 2.6 4.3 0.00 0.00 0.00 72 1016.7
20260507214608 66 74 2.6 4.3 0.00 0.00 0.00 72 1016.9
20260507214104 66 84 3.5 4.3 0.00 0.00 0.00 71 1016.7
20260507213601 65 144 2.6 2.6 0.00 0.00 0.00 72 1016.0
20260507213058 65 119 0.9 2.6 0.00 0.00 0.00 73 1016.0
20260507212554 65 138 0.0 1.7 0.00 0.00 0.00 73 1016.5
20260507212051 65 102 3.5 4.3 0.00 0.00 0.00 72 1016.6
20260507211547 66 336 4.3 6.1 0.00 0.00 0.00 73 1016.9
20260507211043 66 337 3.5 4.3 0.00 0.00 0.00 72 1017.5
20260507210541 66 152 6.1 8.7 0.00 0.00 0.00 71 1017.6
20260507210038 66 160 1.7 2.6 0.00 0.00 0.00 74 1017.2
20260507205534 65 99 4.3 6.1 0.00 0.00 0.00 72 1017.0
20260507205031 65 80 2.6 2.6 0.00 0.00 0.00 73 1017.6
20260507204527 65 123 2.6 4.3 0.00 0.00 0.00 72 1017.8
20260507204025 64 137 1.7 2.6 0.00 0.00 0.00 74 1017.3
20260507203523 64 145 2.6 4.3 0.00 0.00 0.00 75 1017.4
20260507203020 64 45 5.2 7.8 0.00 0.00 0.00 73 1017.6
20260507202515 64 324 5.2 6.1 0.00 0.00 0.00 74 1017.5
20260507202012 64 4 1.7 2.6 0.00 0.00 0.00 74 1017.2
20260507201508 64 29 5.2 6.1 0.00 0.00 0.00 73 1017.3
20260507201004 64 121 2.6 2.6 0.00 0.00 0.00 73 1017.5
20260507200459 64 84 3.5 4.3 0.00 0.00 0.00 72 1017.7
20260507195955 64 82 2.6 4.3 0.00 0.00 0.00 73 1017.3
20260507195453 65 123 5.2 7.8 0.00 0.00 0.00 72 1017.5
20260507194950 64 124 1.7 2.6 0.00 0.00 0.00 73 1017.6
20260507194447 64 137 0.9 1.7 0.00 0.00 0.00 74 1017.9
20260507193942 64 135 1.7 1.7 0.00 0.00 0.00 74 1017.8
20260507193440 64 56 0.9 1.7 0.00 0.00 0.00 74 1017.5
20260507192937 64 59 4.3 6.1 0.00 0.00 0.00 75 1017.5
20260507192432 64 64 1.7 2.6 0.00 0.00 0.00 75 1017.6
20260507191930 64 101 2.6 4.3 0.00 0.00 0.00 75 1018.0
20260507191426 64 280 3.5 6.1 0.00 0.00 0.00 73 1018.9
20260507190922 64 30 5.2 6.1 0.00 0.00 0.00 74 1018.2
20260507190420 64 117 0.0 0.0 0.00 0.00 0.00 77 1018.2
20260507185919 64 128 0.0 0.0 0.00 0.00 0.00 77 1018.2
20260507185416 63 123 0.0 0.0 0.00 0.00 0.00 77 1018.1
20260507184913 63 120 1.7 1.7 0.00 0.00 0.00 76 1018.0
20260507184410 63 133 0.0 1.7 0.00 0.00 0.00 73 1018.3
20260507183908 63 142 0.9 1.7 0.00 0.00 0.00 75 1018.7
20260507183404 63 140 0.0 1.7 0.00 0.00 0.00 76 1019.0
20260507182902 63 73 0.0 0.0 0.00 0.00 0.00 76 1018.7
20260507182357 63 120 1.7 2.6 0.00 0.00 0.00 75 1019.1
20260507181854 63 99 1.7 2.6 0.00 0.00 0.00 73 1019.0
20260507181350 63 154 5.2 7.8 0.00 0.00 0.00 73 1018.9
20260507180847 63 119 2.6 6.1 0.00 0.00 0.00 76 1017.5
20260507180344 63 126 1.7 2.6 0.00 0.00 0.00 76 1018.0
20260507175839 62 69 1.7 2.6 0.00 0.00 0.00 75 1018.5
20260507175337 62 124 1.7 2.6 0.00 0.00 0.00 76 1019.3
20260507174834 62 103 3.5 4.3 0.00 0.00 0.00 75 1018.7
20260507174331 62 101 2.6 2.6 0.00 0.00 0.00 75 1018.0
20260507173829 62 75 2.6 4.3 0.00 0.00 0.00 76 1019.0
20260507173326 62 349 4.3 6.1 0.00 0.00 0.00 76 1019.5
20260507172822 61 113 1.7 2.6 0.00 0.00 0.00 77 1019.0
20260507172319 61 126 1.7 2.6 0.00 0.00 0.00 77 1018.6
20260507171814 61 138 0.9 1.7 0.00 0.00 0.00 77 1018.2
20260507171312 61 53 3.5 4.3 0.00 0.00 0.00 76 1018.7
20260507170809 61 127 1.7 2.6 0.00 0.00 0.00 76 1019.4
20260507170305 61 195 1.7 2.6 0.00 0.00 0.00 76 1019.8
20260507165801 61 283 6.1 8.7 0.00 0.00 0.00 77 1020.1
20260507165257 61 60 3.5 4.3 0.00 0.00 0.00 76 1019.9
20260507164753 61 78 1.7 2.6 0.00 0.00 0.00 76 1019.5
20260507164251 61 204 3.5 4.3 0.00 0.00 0.00 76 1019.7
20260507163748 61 147 1.7 1.7 0.00 0.00 0.00 77 1019.1
20260507163245 61 334 6.1 7.8 0.00 0.00 0.00 76 1020.7
20260507162741 61 66 1.7 2.6 0.00 0.00 0.00 77 1019.6
20260507162237 61 105 1.7 2.6 0.00 0.00 0.00 76 1019.8
20260507161734 61 114 0.0 1.7 0.00 0.00 0.00 78 1020.1
20260507161231 60 143 0.9 1.7 0.00 0.00 0.00 77 1019.5
20260507160726 61 122 1.7 1.7 0.00 0.00 0.00 77 1019.6
20260507160223 60 129 0.0 1.7 0.00 0.00 0.00 78 1019.7
20260507155719 60 105 0.9 1.7 0.00 0.00 0.00 78 1019.2
20260507155215 60 135 0.0 1.7 0.00 0.00 0.00 78 1019.6
20260507154712 60 259 6.1 7.8 0.00 0.00 0.00 77 1019.6
20260507154210 60 74 4.3 6.1 0.00 0.00 0.00 78 1020.1
20260507153707 60 108 2.6 2.6 0.00 0.00 0.00 79 1019.8
20260507153203 60 87 4.3 6.1 0.00 0.00 0.00 78 1019.2
20260507152659 60 66 5.2 7.8 0.00 0.00 0.00 78 1019.6
20260507152155 59 58 2.6 2.6 0.00 0.00 0.00 79 1019.6
20260507151651 59 38 5.2 6.1 0.00 0.00 0.00 81 1019.3
20260507151148 59 61 2.6 4.3 0.00 0.00 0.00 81 1019.5
20260507150645 59 62 5.2 7.8 0.00 0.00 0.00 82 1018.9
20260507150142 58 50 3.5 6.1 0.00 0.00 0.00 83 1018.6
20260507145637 58 87 2.6 4.3 0.00 0.00 0.00 83 1018.7
20260507145135 58 60 5.2 8.7 0.00 0.00 0.00 82 1019.1
20260507144631 58 66 4.3 6.1 0.00 0.00 0.00 83 1019.6
20260507144130 58 84 3.5 6.1 0.00 0.00 0.00 83 1020.0
20260507143626 58 128 2.6 4.3 0.00 0.00 0.00 83 1019.5
20260507143123 58 95 3.5 6.1 0.00 0.00 0.00 83 1019.4
20260507142618 58 355 5.2 7.8 0.00 0.00 0.00 83 1019.4
20260507142116 58 183 3.5 4.3 0.00 0.00 0.00 83 1019.2
20260507141612 58 173 5.2 6.1 0.00 0.00 0.00 83 1019.1
20260507141109 58 111 5.2 8.7 0.00 0.00 0.00 83 1019.2
20260507140605 58 120 1.7 2.6 0.00 0.00 0.00 84 1018.4
20260507135559 58 42 7.8 12.2 0.00 0.00 0.00 82 1019.1
20260507135057 59 56 4.3 6.1 0.00 0.00 0.00 82 1019.7
20260507134553 59 41 7.8 12.2 0.00 0.00 0.00 82 1019.8
20260507134049 59 12 2.6 4.3 0.00 0.00 0.00 84 1019.8
20260507133545 58 78 6.1 8.7 0.00 0.00 0.00 84 1019.7
20260507133043 58 251 3.5 4.3 0.00 0.00 0.00 85 1019.6
20260507132540 58 78 1.7 2.6 0.00 0.00 0.00 84 1019.5
20260507132036 58 67 3.5 4.3 0.00 0.00 0.00 84 1019.3
20260507131533 58 74 4.3 6.1 0.00 0.00 0.00 83 1019.2
20260507131030 58 81 4.3 7.8 0.00 0.00 0.00 83 1019.3
20260507130527 58 59 4.3 4.3 0.00 0.00 0.00 83 1019.6
20260507130026 58 338 7.8 12.2 0.00 0.00 0.00 84 1019.3
20260507125524 58 48 4.3 6.1 0.00 0.00 0.00 85 1019.2
20260507125021 58 301 6.1 7.8 0.00 0.00 0.00 86 1019.1
20260507124517 58 42 8.7 10.4 0.00 0.00 0.00 86 1019.0
20260507124015 59 355 7.0 8.7 0.00 0.00 0.00 87 1018.5
20260507123513 59 316 4.3 4.3 0.00 0.00 0.00 87 1018.5
20260507123010 59 68 3.5 4.3 0.00 0.00 0.00 87 1018.5
20260507122504 59 134 2.6 4.3 0.00 0.00 0.00 87 1018.5
20260507122001 59 89 4.3 6.1 0.00 0.00 0.00 87 1018.4
20260507121456 59 63 3.5 6.1 0.00 0.00 0.00 87 1018.4
20260507120953 59 357 2.6 4.3 0.00 0.00 0.00 87 1018.2
20260507120449 59 10 5.2 6.1 0.00 0.00 0.00 87 1018.4
20260507115946 59 130 4.3 6.1 0.00 0.00 0.00 87 1018.3
20260507115442 59 137 5.2 8.7 0.00 0.00 0.00 87 1018.2
20260507114938 59 11 4.3 6.1 0.00 0.00 0.00 88 1018.4
20260507114434 59 64 5.2 7.8 0.00 0.00 0.00 88 1018.3
20260507113932 59 68 4.3 6.1 0.00 0.00 0.00 88 1018.1
20260507113428 59 79 5.2 10.4 0.00 0.00 0.00 89 1018.0
20260507112926 59 344 5.2 7.8 0.00 0.00 0.00 89 1017.9
20260507112423 59 13 5.2 6.1 0.00 0.00 0.00 90 1017.8
20260507111920 59 342 6.1 7.8 0.00 0.00 0.00 89 1018.1
20260507111418 59 325 7.0 8.7 0.00 0.00 0.00 88 1018.0
20260507110914 59 345 7.0 7.8 0.00 0.00 0.00 87 1017.8
20260507110410 59 324 4.3 8.7 0.00 0.00 0.00 86 1017.5
20260507105907 59 92 6.1 8.7 0.00 0.00 0.00 86 1017.5
20260507105403 59 352 3.5 6.1 0.00 0.00 0.00 86 1017.4
20260507104900 59 10 7.0 8.7 0.00 0.00 0.00 87 1017.6
20260507104357 59 20 9.6 10.4 0.00 0.00 0.00 88 1017.8
20260507103853 59 16 7.0 10.4 0.00 0.00 0.00 89 1017.6
20260507103350 59 3 6.1 7.8 0.00 0.00 0.00 88 1017.3
20260507102846 59 14 9.6 12.2 0.00 0.00 0.00 90 1017.8
20260507102342 59 334 7.8 12.2 0.00 0.00 0.00 91 1018.0
20260507101839 59 325 4.3 6.1 0.00 0.00 0.00 91 1017.9
20260507101333 59 332 5.2 8.7 0.00 0.00 0.00 91 1017.9
20260507100831 59 355 6.1 8.7 0.00 0.00 0.00 90 1018.1
20260507100328 59 23 6.1 7.8 0.00 0.00 0.00 90 1017.5
20260507095826 59 358 4.3 6.1 0.00 0.00 0.00 90 1017.1
20260507095322 59 40 1.7 2.6 0.00 0.00 0.00 90 1017.1
20260507094820 59 49 2.6 4.3 0.00 0.00 0.00 91 1017.7
20260507094316 59 18 5.2 7.8 0.00 0.00 0.00 91 1017.9
20260507093813 59 106 1.7 2.6 0.00 0.00 0.00 91 1017.2
20260507093312 59 123 0.9 1.7 0.00 0.00 0.00 91 1017.2
20260507092809 59 350 6.1 8.7 0.00 0.00 0.00 91 1016.5
20260507092307 59 56 1.7 2.6 0.00 0.00 0.00 91 1017.1
20260507091802 59 43 2.6 2.6 0.00 0.00 0.00 92 1017.1
20260507091259 59 6 3.5 4.3 0.00 0.00 0.00 92 1016.9
20260507090759 59 137 2.6 4.3 0.00 0.00 0.00 92 1017.1
20260507090256 59 139 0.9 1.7 0.00 0.00 0.00 92 1016.7
20260507085753 59 69 1.7 2.6 0.00 0.00 0.00 92 1016.6
20260507085250 59 134 1.7 2.6 0.00 0.00 0.00 92 1016.5
20260507084747 59 80 1.7 2.6 0.00 0.00 0.00 92 1017.2
20260507084243 59 244 3.5 4.3 0.00 0.00 0.00 92 1016.4
20260507083741 59 82 2.6 2.6 0.00 0.00 0.00 92 1016.6
20260507083237 59 112 0.0 0.0 0.00 0.00 0.00 92 1016.7
20260507082733 59 134 0.0 0.0 0.00 0.00 0.00 91 1016.2
20260507082229 59 51 2.6 4.3 0.00 0.00 0.00 91 1015.5
20260507081726 59 124 3.5 4.3 0.00 0.00 0.00 91 1016.0
20260507081222 59 130 0.0 1.7 0.00 0.00 0.00 91 1016.5
20260507080719 59 81 3.5 6.1 0.00 0.00 0.00 91 1016.0
20260507080215 59 103 0.9 1.7 0.00 0.00 0.00 91 1015.8
20260507075711 59 71 3.5 6.1 0.00 0.00 0.00 91 1016.0
20260507075207 59 71 5.2 8.7 0.00 0.00 0.00 90 1016.1
20260507074703 59 138 1.7 2.6 0.00 0.00 0.00 90 1016.0
20260507074202 59 96 1.7 2.6 0.00 0.00 0.00 90 1016.2
20260507073658 59 140 1.7 1.7 0.00 0.00 0.00 90 1016.1
20260507073154 59 109 0.9 1.7 0.00 0.00 0.00 90 1016.1
20260507072652 59 88 1.7 1.7 0.00 0.00 0.00 90 1016.1
20260507072149 59 86 5.2 6.1 0.00 0.00 0.00 90 1015.7
20260507071647 59 88 4.3 7.8 0.00 0.00 0.00 90 1015.6
20260507071143 59 68 6.1 7.8 0.00 0.00 0.00 89 1015.6
20260507070640 59 40 3.5 4.3 0.00 0.00 0.00 89 1016.1
20260507070137 59 61 3.5 4.3 0.00 0.00 0.00 89 1016.1
20260507065633 59 65 1.7 1.7 0.00 0.00 0.00 89 1016.2
20260507065130 59 80 1.7 2.6 0.00 0.00 0.00 89 1016.1
20260507064628 59 78 2.6 4.3 0.00 0.00 0.00 89 1016.3
20260507064127 59 84 1.7 2.6 0.00 0.00 0.00 89 1016.3
20260507063624 59 100 3.5 4.3 0.00 0.00 0.00 88 1016.3
20260507063121 59 93 3.5 4.3 0.00 0.00 0.00 88 1016.2
20260507062618 59 71 2.6 2.6 0.00 0.00 0.00 88 1016.4
20260507062115 59 78 3.5 4.3 0.00 0.00 0.00 88 1016.3
20260507061613 59 93 1.7 2.6 0.00 0.00 0.00 88 1016.0
20260507061110 60 130 2.6 2.6 0.00 0.00 0.00 88 1016.1
20260507060608 60 107 0.9 1.7 0.00 0.00 0.00 88 1016.0
20260507060104 60 54 6.1 7.8 0.00 0.00 0.00 88 1015.7
20260507055559 60 91 2.6 2.6 0.00 0.00 0.00 87 1015.8
20260507055056 60 62 4.3 6.1 0.00 0.00 0.00 87 1016.0
20260507054552 60 123 2.6 2.6 0.00 0.00 0.00 86 1016.1
20260507054049 60 44 3.5 7.8 0.00 0.00 0.00 86 1016.2
20260507053547 60 127 3.5 6.1 0.00 0.00 0.00 86 1016.3
20260507053046 60 109 0.0 0.0 0.00 0.00 0.00 86 1016.0
20260507052543 60 105 2.6 4.3 0.00 0.00 0.00 86 1015.8
20260507052039 61 70 5.2 7.8 0.00 0.00 0.00 85 1016.0
20260507051537 61 111 2.6 2.6 0.00 0.00 0.00 85 1016.3
20260507051034 61 43 3.5 6.1 0.00 0.00 0.00 85 1016.4
20260507050530 61 52 2.6 4.3 0.00 0.00 0.00 85 1016.6
20260507050027 61 129 1.7 4.3 0.00 0.01 0.01 85 1016.5
20260507045524 61 59 6.1 7.8 0.00 0.01 0.01 85 1016.1
20260507045021 61 25 3.5 4.3 0.00 0.01 0.01 85 1016.1
20260507044518 61 118 4.3 7.8 0.00 0.01 0.01 85 1016.2
20260507044014 61 124 1.7 2.6 0.00 0.01 0.01 86 1016.3
20260507043510 62 135 1.7 1.7 0.00 0.01 0.01 86 1016.6
20260507043008 62 130 1.7 1.7 0.00 0.01 0.01 86 1016.8
20260507042503 62 128 1.7 2.6 0.00 0.01 0.01 85 1016.6
20260507041959 62 73 3.5 4.3 0.00 0.01 0.01 86 1016.5
20260507041456 62 146 0.0 0.0 0.00 0.01 0.01 86 1016.6
20260507040953 62 83 4.3 4.3 0.00 0.01 0.01 86 1016.5
20260507040449 62 167 2.6 4.3 0.00 0.01 0.01 86 1016.1
20260507035945 62 330 3.5 4.3 0.00 0.01 0.01 86 1015.9
20260507035442 62 145 1.7 1.7 0.00 0.01 0.01 85 1016.2
20260507034938 62 115 2.6 2.6 0.00 0.01 0.01 86 1015.9
20260507034435 62 111 2.6 4.3 0.00 0.01 0.01 85 1016.3
20260507033934 62 117 0.9 1.7 0.00 0.01 0.01 86 1016.3
20260507033431 62 136 2.6 4.3 0.00 0.01 0.01 85 1015.9
20260507032928 62 125 1.7 1.7 0.00 0.01 0.01 85 1015.8
20260507032425 62 114 2.6 4.3 0.00 0.01 0.01 84 1015.6
20260507031921 62 124 2.6 2.6 0.00 0.01 0.01 84 1015.8
20260507031417 62 15 4.3 6.1 0.00 0.01 0.01 84 1016.2
20260507030914 62 342 3.5 4.3 0.00 0.01 0.01 85 1016.4
20260507030412 62 8 3.5 4.3 0.00 0.01 0.01 85 1016.3
20260507025908 62 178 2.6 2.6 0.00 0.01 0.01 86 1015.7
20260507025406 62 62 4.3 6.1 0.00 0.01 0.01 86 1015.3
20260507024904 62 138 2.6 2.6 0.00 0.01 0.01 86 1015.5
20260507024400 62 137 1.7 2.6 0.00 0.01 0.01 86 1015.5
20260507023856 62 339 4.3 4.3 0.00 0.01 0.01 86 1015.6
20260507023353 62 125 1.7 2.6 0.00 0.01 0.01 86 1015.5
20260507022851 62 61 0.0 0.0 0.00 0.01 0.01 85 1015.6
20260507022347 62 96 3.5 4.3 0.00 0.01 0.01 85 1015.5
20260507021843 62 4 4.3 6.1 0.00 0.01 0.01 85 1015.5
20260507021338 62 79 3.5 4.3 0.00 0.01 0.01 85 1015.4
20260507020837 61 68 2.6 2.6 0.00 0.01 0.01 85 1015.0
20260507020333 61 335 6.1 8.7 0.00 0.01 0.01 85 1015.2
20260507015830 61 281 4.3 4.3 0.00 0.01 0.01 85 1014.8
20260507015328 61 41 5.2 6.1 0.00 0.01 0.01 85 1014.8
20260507014825 61 104 3.5 4.3 0.00 0.01 0.01 85 1014.8
20260507014321 61 14 6.1 6.1 0.00 0.01 0.01 85 1014.7
20260507013818 61 359 5.2 6.1 0.00 0.01 0.01 85 1014.4
20260507013315 61 27 3.5 4.3 0.00 0.01 0.01 85 1014.5
20260507012813 61 350 5.2 7.8 0.00 0.01 0.01 85 1014.3
20260507012308 62 40 3.5 4.3 0.00 0.01 0.01 85 1014.5
20260507011806 62 31 4.3 6.1 0.00 0.01 0.01 85 1014.2
20260507011302 62 0 6.1 7.8 0.00 0.01 0.01 84 1014.2
20260507010801 62 118 2.6 2.6 0.00 0.01 0.01 85 1014.1
20260507010258 62 323 4.3 6.1 0.00 0.01 0.01 84 1014.1
20260507005755 62 24 4.3 6.1 0.00 0.01 0.01 84 1013.9
20260507005251 62 326 3.5 6.1 0.00 0.01 0.01 84 1014.2
20260507004748 62 1 2.6 2.6 0.00 0.01 0.01 84 1013.9
20260507004246 62 6 5.2 6.1 0.00 0.01 0.01 84 1013.8
20260507003742 62 356 4.3 4.3 0.00 0.01 0.01 84 1013.7
20260507003237 62 85 4.3 6.1 0.00 0.01 0.01 83 1013.4
20260507002734 62 16 4.3 6.1 0.00 0.01 0.01 83 1013.6
20260507002230 62 4 7.0 7.8 0.00 0.01 0.01 83 1013.4
20260507001727 62 38 9.6 12.2 0.00 0.01 0.01 83 1013.6
20260507001224 62 69 4.3 6.1 0.00 0.01 0.01 83 1013.5
20260507000720 62 88 3.5 4.3 0.00 0.01 0.01 84 1013.4
20260507000216 62 341 6.1 7.8 0.00 0.01 0.01 83 1013.2
20260506235713 62 340 5.2 6.1 0.00 0.01 0.01 83 1013.2
20260506235208 62 0 7.0 8.7 0.00 0.01 0.01 83 1013.5
20260506234706 62 349 7.8 8.7 0.00 0.01 0.01 83 1013.4
20260506234203 62 55 5.2 7.8 0.00 0.01 0.01 83 1013.6
20260506233700 62 356 7.8 10.4 0.00 0.01 0.01 83 1013.5
20260506233157 62 336 7.8 10.4 0.00 0.01 0.01 83 1013.5
20260506232653 62 46 3.5 4.3 0.00 0.01 0.01 83 1013.3
20260506232148 62 341 8.7 12.2 0.00 0.01 0.01 83 1013.2
20260506231646 62 44 6.1 7.8 0.00 0.01 0.01 83 1012.9
20260506231144 62 26 6.1 8.7 0.00 0.01 0.01 83 1013.2
20260506230641 62 268 9.6 13.0 0.00 0.01 0.01 83 1013.3
20260506230137 62 339 7.0 8.7 0.00 0.01 0.01 83 1013.3
20260506225634 62 43 7.0 10.4 0.00 0.01 0.01 83 1013.3
20260506225131 62 99 4.3 6.1 0.00 0.01 0.01 83 1012.9